Weather in Mahikeng

South Africa     25°52′18″S   25°36′23″E
temp.,
°C
wind,
m/s
gust,
m/s
humid.,
%
clouds,
%
prec.,
mm/h
press.,
hPa
HPBL,
m
25 february, thu
thu2523:00+18ne2493100 1.4 1015199
02:00+17ne239276 1.4 101377
05:00+17e129072 0.0 101352
08:00+20nne457951 0.0 1013379
11:00+23nnw556528 0.0 1012758
14:00+26nnw445330 0.0 10101403
17:00+23nw226448 5.0 1008544
20:00+20n237636 7.3 101074
26 february, fri
fri2623:00+19n34790 0.0 101186
02:00+18n34810 0.0 101064
05:00+17n22850 0.0 101038
08:00+21n12710 0.1 1012201
11:00+27nw22391 1.2 10111877
14:00+29nw123211 1.2 10092518
17:00+28nw234179 0.0 10071268
20:00+22ene235579 0.4 100971
27 february, sat
sat2723:00+20ne356814 0.8 1011103
02:00+17ne8158617 1.0 1012484
05:00+16ne7148629 0.0 1013499
08:00+19nne8128019 0.0 1015704
11:00+21nne686971 0.1 10151004
14:00+24nne455785 0.1 10121285
17:00+25nne335144 0.0 10111501
20:00+19ene347227 1.6 1013100
28 february, sun
sun2823:00+18ne467927 0.8 1016150
02:00+17nne498614 0.8 1015250
05:00+16ne410930 0.0 1016383
08:00+18ne69824 0.0 1017513
11:00+23nne56582 0.0 10161032
14:00+26ne44431 0.0 10131866
17:00+25ne444625 0.0 10111804
20:00+20ne356224 0.1 1014149
1 march, mon
mon123:00+20ne366252 0.1 1017220
02:00+16n378539 0.1 1017281
05:00+14ne37822 0.0 1018249
08:00+17nne47661 0.0 1018475
11:00+23nne45520 0.0 10171128
14:00+26ne44391 0.0 10142053
17:00+26nne233515 0.0 10122327
20:00+22nnw234340 0.0 1014140